This is the latest recevied weather packets stored in our database for station/object HB9TJR-3. If no packets are shown the sender has not sent any weather packets the latest 10 day(s).
| Time | Temp. | Humidity | Pressure | Rain* | Wind** | Luminosity | Snow |
|---|---|---|---|---|---|---|---|
| 1778206053 | 6.67° C | 88% | 863.9 hPa | 0 mm | - | - | - |
| 1778205093 | 6.11° C | 88% | 863.9 hPa | 0 mm | - | - | - |
| 1778204133 | 6.67° C | 88% | 863.9 hPa | 0 mm | - | - | - |
| 1778203173 | 6.11° C | 89% | 863.9 hPa | 0 mm | - | - | - |
| 1778202214 | 6.11° C | 91% | 863.9 hPa | 0 mm | - | - | - |
| 1778201253 | 6.11° C | 90% | 863.9 hPa | 0 mm | - | - | - |
| 1778200293 | 6.67° C | 90% | 863.9 hPa | 0 mm | - | - | - |
| 1778199333 | 6.11° C | 92% | 864.1 hPa | 0 mm | - | - | - |
| 1778198374 | 6.11° C | 92% | 864.1 hPa | 0 mm | - | - | - |
| 1778197415 | 6.11° C | 93% | 864.2 hPa | 0 mm | - | - | - |
| 1778196454 | 6.11° C | 93% | 864.3 hPa | 0 mm | - | - | - |
| 1778195493 | 6.11° C | 92% | 864.2 hPa | 0 mm | - | - | - |
| 1778194533 | 6.11° C | 93% | 864.3 hPa | 0 mm | - | - | - |
| 1778193573 | 6.67° C | 92% | 864.4 hPa | 0 mm | - | - | - |
| 1778192613 | 6.67° C | 92% | 864.3 hPa | 0 mm | - | - | - |
| 1778191654 | 6.67° C | 92% | 864.2 hPa | 0 mm | - | - | - |
| 1778190693 | 6.67° C | 92% | 864.3 hPa | 0 mm | - | - | - |
| 1778189733 | 6.67° C | 90% | 864.2 hPa | 0 mm | - | - | - |
| 1778188773 | 6.67° C | 87% | 864.2 hPa | 0 mm | - | - | - |
| 1778187813 | 7.22° C | 86% | 864.3 hPa | 0 mm | - | - | - |
| 1778186853 | 7.22° C | 87% | 864.4 hPa | 0 mm | - | - | - |
| 1778185893 | 6.67° C | 87% | 864.3 hPa | 0 mm | - | - | - |
| 1778184933 | 6.67° C | 86% | 864.2 hPa | 0 mm | - | - | - |
| 1778183974 | 7.22° C | 85% | 864 hPa | 0 mm | - | - | - |
| 1778183013 | 7.22° C | 86% | 863.9 hPa | 0 mm | - | - | - |
* Rain latest hour (hover to see other rain measurements)
** Current wind speed in m/s (hover to see current wind gust speed)